INMARSAT 3-F2

Last updated on Tue Sep 22 2026 00:03:10 GMT+0000 (Coordinated Universal Time)

1 24307U 96053A 26263.00246573 .00000121 00000+0 00000+0 0 9997 2 24307 10.0674 52.9454 0005663 125.1088 233.1548 0.99979767109863
UTC large
Height (km)
Speed (km/s)
/
Latitude / Longitude
Inclination (degrees)
Orbital Period (minutes)
Azimuth
Elevation
Range (km)
Doppler Factor

Next 0 passes for location: London (51.5072 / 0.1276)

No passes found over London.
INMARSAT 3-F2